This demonstration page uses our WeatherBlox Daily Observations layout. Learn more.

Left ArrowRight Arrow

36.17497, -115.13722

Hourly Observations for June 22, 2019

Temp ( °F °C ) Dew Point ( °F °C ) Humidity (%) Winds ( mph kmh ) Pressure ( in mb ) Visibility ( mi km ) Precip ( " mm )
12:53 am 00:53 Clear 83 28.3 14 -10 7 7 N 12 19 29.75 1007 10 16 0.00 0.00
1:53 am 01:53 Clear 80 26.7 21 -6.1 11 11 NNW 24 39 29.76 1008 10 16 0.00 0.00
2:53 am 02:53 Clear 77 25 21 -6.1 12 12 NNW 21 33 29.80 1009 10 16 0.00 0.00
3:53 am 03:53 Clear 75 23.9 21 -6.1 13 13 N 14 22 29.85 1011 10 16 0.00 0.00
4:53 am 04:53 Clear 74 23.3 22 -5.6 14 14 NNW 18 30 29.87 1012 10 16 0.00 0.00
5:53 am 05:53 Sunny 73 22.8 22 -5.6 15 15 NNE 13 20 29.91 1013 10 16 0.00 0.00
6:53 am 06:53 Sunny 73 22.8 23 -5 15 15 NNE 16 26 29.93 1013 10 16 0.00 0.00
7:53 am 07:53 Sunny 75 23.9 21 -6.1 13 13 NNW 20 31 29.94 1014 10 16 0.00 0.00
8:53 am 08:53 Sunny 78 25.6 21 -6.1 12 12 N 20 31 29.96 1015 10 16 0.00 0.00
9:53 am 09:53 Sunny 80 26.7 19 -7.2 10 10 N 15 24 29.96 1014 10 16 0.00 0.00
10:53 am 10:53 Sunny 81 27.2 19 -7.2 10 10 NNW 15 24 29.96 1015 10 16 0.00 0.00
11:53 am 11:53 Sunny 82 27.8 19 -7.2 9 9 NNW 14 22 29.95 1014 10 16 0.00 0.00
12:53 pm 12:53 Sunny 83 28.3 20 -6.7 10 10 E 12 19 29.94 1014 10 16 0.00 0.00
1:53 pm 13:53 Sunny 86 30 19 -7.2 8 8 NNE 10 17 29.92 1013 10 16 0.00 0.00
2:53 pm 14:53 Sunny 86 30 19 -7.2 8 8 NNW 9 15 29.91 1013 10 16 0.00 0.00
3:53 pm 15:53 Sunny 88 31.1 19 -7.2 8 8 ENE 12 19 29.90 1012 10 16 0.00 0.00
4:53 pm 16:53 Sunny 88 31.1 17 -8.3 7 7 E 9 15 29.88 1012 10 16 0.00 0.00
5:53 pm 17:53 Sunny 89 31.7 14 -10 6 6 N 6 9 29.88 1012 10 16 0.00 0.00
6:53 pm 18:53 Sunny 87 30.6 15 -9.4 7 7 ESE 10 17 29.89 1012 10 16 0.00 0.00
7:53 pm 19:53 Sunny 85 29.4 16 -8.9 7 7 E 8 13 29.90 1013 10 16 0.00 0.00
8:53 pm 20:53 Clear 83 28.3 14 -10 7 7 E 10 17 29.92 1013 10 16 0.00 0.00
9:53 pm 21:53 Clear 83 28.3 15 -9.4 8 8 N 7 11 29.94 1014 10 16 0.00 0.00
10:53 pm 22:53 Clear 81 27.2 17 -8.3 9 9 NNW 8 13 29.95 1014 10 16 0.00 0.00
11:53 pm 23:53 Clear 79 26.1 19 -7.2 10 10 Calm 29.97 1015 10 16 0.00 0.00

Powered by AerisWeather